SHT22A EGLL-EGJB

Flight info

Callsign SHT22A
Flight time 0h 31m
Altitude 24000
Route GASGU N866 SAM/N0397F240 N63 LELNA
Aircraft A319/M-SDE3FGHIRWY/LB1

Departure

Time 2026-04-20 14:32
Airport London Heathrow Airport (EGLL)

Arrival

Time 2026-04-20 15:04
Airport Guernsey Airport (EGJB)
Time Latitude Longitude Altitude Speed Heading
2026-04-20 14:13 51.47403 -0.48829 86 ft 0 kts 180°
2026-04-20 14:26 51.47416 -0.48829 86 ft 4 kts 180°
2026-04-20 14:26 51.47443 -0.48829 89 ft 4 kts 180°
2026-04-20 14:26 51.47469 -0.48832 86 ft 4 kts 153°
2026-04-20 14:26 51.47485 -0.48860 87 ft 4 kts 105°
2026-04-20 14:27 51.47490 -0.48891 86 ft 1 kts 103°
2026-04-20 14:28 51.47490 -0.48889 86 ft 1 kts 103°
2026-04-20 14:29 51.47486 -0.48816 88 ft 14 kts 89°
2026-04-20 14:29 51.47486 -0.48609 86 ft 23 kts 90°
2026-04-20 14:29 51.47403 -0.48476 86 ft 22 kts 180°
2026-04-20 14:29 51.47236 -0.48475 88 ft 26 kts 180°
2026-04-20 14:30 51.47051 -0.48473 86 ft 27 kts 179°
2026-04-20 14:30 51.46871 -0.48469 86 ft 15 kts 179°
2026-04-20 14:30 51.46833 -0.48469 89 ft 1 kts 179°
2026-04-20 14:30 51.46778 -0.48467 86 ft 12 kts 179°
2026-04-20 14:31 51.46679 -0.48465 86 ft 16 kts 179°
2026-04-20 14:31 51.46556 -0.48468 87 ft 19 kts 181°
2026-04-20 14:31 51.46479 -0.48377 87 ft 16 kts 92°
2026-04-20 14:31 51.46482 -0.48044 87 ft 58 kts 89°
2026-04-20 14:32 51.46483 -0.47039 88 ft 120 kts 89°
2026-04-20 14:32 51.46484 -0.45489 456 ft 141 kts 89°
2026-04-20 14:32 51.46469 -0.43915 1185 ft 142 kts 89°
2026-04-20 14:32 51.46418 -0.42234 1676 ft 163 kts 95°
2026-04-20 14:33 51.45936 -0.40515 2277 ft 184 kts 124°
2026-04-20 14:33 51.45079 -0.38835 2798 ft 206 kts 123°
2026-04-20 14:33 51.44210 -0.36832 3389 ft 232 kts 121°
2026-04-20 14:33 51.43195 -0.34673 4245 ft 253 kts 133°
2026-04-20 14:34 51.41649 -0.33197 5337 ft 270 kts 160°
2026-04-20 14:34 51.39750 -0.33083 5820 ft 281 kts 192°
2026-04-20 14:34 51.38107 -0.34714 6382 ft 286 kts 231°
2026-04-20 14:34 51.37182 -0.37512 7577 ft 284 kts 248°
2026-04-20 14:35 51.36402 -0.40412 8769 ft 285 kts 248°
2026-04-20 14:35 51.35602 -0.43338 9889 ft 288 kts 248°
2026-04-20 14:35 51.34776 -0.46310 10698 ft 302 kts 248°
2026-04-20 14:35 51.33885 -0.49494 11223 ft 322 kts 249°
2026-04-20 14:36 51.32954 -0.52790 12078 ft 328 kts 248°
2026-04-20 14:36 51.32007 -0.56128 13064 ft 331 kts 248°
2026-04-20 14:36 51.31057 -0.59482 14056 ft 333 kts 248°
2026-04-20 14:36 51.30098 -0.62871 14903 ft 335 kts 249°
2026-04-20 14:37 51.29135 -0.66269 15750 ft 338 kts 249°
2026-04-20 14:37 51.28160 -0.69703 16601 ft 340 kts 250°
2026-04-20 14:37 51.27180 -0.73156 17481 ft 343 kts 250°
2026-04-20 14:37 51.26194 -0.76631 18342 ft 345 kts 251°
2026-04-20 14:38 51.25213 -0.80088 19106 ft 347 kts 251°
2026-04-20 14:38 51.24202 -0.83649 19894 ft 349 kts 251°
2026-04-20 14:38 51.23180 -0.87169 20708 ft 352 kts 249°
2026-04-20 14:38 51.21704 -0.90368 21464 ft 365 kts 234°
2026-04-20 14:39 51.19972 -0.93343 22237 ft 367 kts 234°
2026-04-20 14:39 51.18221 -0.96317 22928 ft 369 kts 234°
2026-04-20 14:39 51.16454 -0.99300 23646 ft 371 kts 234°
2026-04-20 14:39 51.14677 -1.02297 24095 ft 373 kts 235°
2026-04-20 14:40 51.12897 -1.05300 24216 ft 371 kts 235°
2026-04-20 14:40 51.11156 -1.08223 24247 ft 358 kts 235°
2026-04-20 14:40 51.09457 -1.11075 24250 ft 353 kts 235°
2026-04-20 14:40 51.07776 -1.13908 24250 ft 352 kts 235°
2026-04-20 14:41 51.06122 -1.16702 24253 ft 351 kts 235°
2026-04-20 14:41 51.04449 -1.19531 24249 ft 351 kts 235°
2026-04-20 14:41 51.02770 -1.22357 24249 ft 351 kts 235°
2026-04-20 14:41 51.01088 -1.25179 24248 ft 354 kts 235°
2026-04-20 14:42 50.99356 -1.28103 24249 ft 373 kts 235°
2026-04-20 14:42 50.97561 -1.31141 24249 ft 380 kts 234°
2026-04-20 14:42 50.95622 -1.34065 24246 ft 391 kts 226°
2026-04-20 14:42 50.93266 -1.36358 24248 ft 403 kts 215°
2026-04-20 14:43 50.90750 -1.38344 24247 ft 404 kts 215°
2026-04-20 14:43 50.88237 -1.40335 24248 ft 404 kts 215°
2026-04-20 14:43 50.85729 -1.42328 24227 ft 403 kts 214°
2026-04-20 14:43 50.83227 -1.44320 24246 ft 403 kts 214°
2026-04-20 14:44 50.80728 -1.46311 24250 ft 402 kts 214°
2026-04-20 14:44 50.78228 -1.48301 24251 ft 402 kts 214°
2026-04-20 14:44 50.75725 -1.50286 24247 ft 402 kts 214°
2026-04-20 14:44 50.73222 -1.52269 24245 ft 402 kts 214°
2026-04-20 14:45 50.70721 -1.54247 24247 ft 402 kts 214°
2026-04-20 14:45 50.68227 -1.56227 24245 ft 402 kts 214°
2026-04-20 14:45 50.65740 -1.58237 24244 ft 401 kts 216°
2026-04-20 14:45 50.63463 -1.60655 24224 ft 393 kts 223°
2026-04-20 14:46 50.61246 -1.63229 24261 ft 401 kts 224°
2026-04-20 14:46 50.58973 -1.65879 24260 ft 410 kts 223°
2026-04-20 14:46 50.56670 -1.68552 24260 ft 412 kts 223°
2026-04-20 14:46 50.54357 -1.71221 24261 ft 413 kts 223°
2026-04-20 14:47 50.52035 -1.73889 24257 ft 413 kts 223°
2026-04-20 14:47 50.49715 -1.76552 24258 ft 413 kts 223°
2026-04-20 14:47 50.47391 -1.79218 24258 ft 414 kts 223°
2026-04-20 14:48 50.42749 -1.84553 24261 ft 414 kts 223°
2026-04-20 14:48 50.40428 -1.87221 24225 ft 414 kts 223°
2026-04-20 14:48 50.38105 -1.89885 24225 ft 415 kts 223°
2026-04-20 14:48 50.35776 -1.92546 24164 ft 415 kts 223°
2026-04-20 14:49 50.33447 -1.95199 23881 ft 413 kts 223°
2026-04-20 14:49 50.31131 -1.97839 23605 ft 411 kts 223°
2026-04-20 14:49 50.28819 -2.00475 23333 ft 410 kts 223°
2026-04-20 14:49 50.26516 -2.03095 23053 ft 409 kts 222°
2026-04-20 14:50 50.24217 -2.05706 22775 ft 408 kts 222°
2026-04-20 14:50 50.21925 -2.08313 22486 ft 407 kts 222°
2026-04-20 14:50 50.19646 -2.10905 21984 ft 404 kts 222°
2026-04-20 14:50 50.17378 -2.13477 21452 ft 402 kts 221°
2026-04-20 14:51 50.15127 -2.16024 20940 ft 398 kts 221°
2026-04-20 14:51 50.12890 -2.18550 20424 ft 396 kts 221°
2026-04-20 14:51 50.10664 -2.21058 19897 ft 394 kts 220°
2026-04-20 14:51 50.08448 -2.23556 19378 ft 392 kts 220°
2026-04-20 14:52 50.06244 -2.26041 18850 ft 391 kts 220°
2026-04-20 14:52 50.04046 -2.28514 18292 ft 389 kts 219°
2026-04-20 14:52 50.01855 -2.30978 17753 ft 388 kts 219°
2026-04-20 14:52 49.99674 -2.33427 17237 ft 386 kts 219°
2026-04-20 14:53 49.97507 -2.35861 16714 ft 383 kts 219°
2026-04-20 14:53 49.95355 -2.38273 16198 ft 380 kts 219°
2026-04-20 14:53 49.93215 -2.40667 15677 ft 378 kts 218°
2026-04-20 14:53 49.91086 -2.43039 15155 ft 376 kts 218°
2026-04-20 14:54 49.88969 -2.45380 14647 ft 373 kts 218°
2026-04-20 14:54 49.86874 -2.47700 14147 ft 369 kts 219°
2026-04-20 14:54 49.84798 -2.50001 13601 ft 367 kts 218°
2026-04-20 14:54 49.82766 -2.52259 13120 ft 365 kts 217°
2026-04-20 14:55 49.80713 -2.54553 12614 ft 363 kts 218°
2026-04-20 14:55 49.78673 -2.56832 12128 ft 360 kts 217°
2026-04-20 14:55 49.76650 -2.59092 11634 ft 358 kts 217°
2026-04-20 14:55 49.74639 -2.61332 11278 ft 355 kts 217°
2026-04-20 14:56 49.72628 -2.63558 11210 ft 355 kts 217°
2026-04-20 14:56 49.70617 -2.65779 11215 ft 356 kts 217°
2026-04-20 14:56 49.68613 -2.67990 10804 ft 348 kts 216°
2026-04-20 14:56 49.67329 -2.69400 10442 ft 336 kts 217°
2026-04-20 14:57 49.65471 -2.71438 9884 ft 321 kts 216°
2026-04-20 14:57 49.63690 -2.73398 9303 ft 309 kts 216°
2026-04-20 14:57 49.61968 -2.75295 8722 ft 300 kts 216°
2026-04-20 14:57 49.60276 -2.77160 7817 ft 302 kts 215°
2026-04-20 14:58 49.58547 -2.79063 6818 ft 308 kts 214°
2026-04-20 14:58 49.56807 -2.80975 6151 ft 302 kts 213°
2026-04-20 14:58 49.55175 -2.82766 6076 ft 276 kts 214°
2026-04-20 14:58 49.53647 -2.84448 5973 ft 264 kts 214°
2026-04-20 14:59 49.52162 -2.86038 5853 ft 256 kts 209°
2026-04-20 14:59 49.50525 -2.87006 5731 ft 252 kts 189°
2026-04-20 14:59 49.48773 -2.87146 5120 ft 255 kts 173°
2026-04-20 14:59 49.46962 -2.87016 4598 ft 261 kts 172°
2026-04-20 15:00 49.45154 -2.86880 4226 ft 259 kts 170°
2026-04-20 15:00 49.43517 -2.86027 3839 ft 244 kts 137°
2026-04-20 15:00 49.42632 -2.83945 3488 ft 233 kts 102°
2026-04-20 15:00 49.42498 -2.81488 3138 ft 231 kts 88°
2026-04-20 15:01 49.42621 -2.79063 2776 ft 223 kts 84°
2026-04-20 15:01 49.42783 -2.76755 2446 ft 212 kts 83°
2026-04-20 15:01 49.42927 -2.74565 2119 ft 200 kts 84°
2026-04-20 15:01 49.43036 -2.72540 1836 ft 180 kts 84°
2026-04-20 15:02 49.43118 -2.70734 1630 ft 161 kts 84°
2026-04-20 15:02 49.43184 -2.69070 1400 ft 149 kts 84°
2026-04-20 15:02 49.43232 -2.67627 1184 ft 125 kts 84°
2026-04-20 15:02 49.43274 -2.66359 1012 ft 116 kts 83°
2026-04-20 15:03 49.43314 -2.65140 828 ft 115 kts 83°
2026-04-20 15:03 49.43355 -2.63908 669 ft 114 kts 82°
2026-04-20 15:03 49.43424 -2.62685 485 ft 116 kts 83°
2026-04-20 15:03 49.43461 -2.61491 348 ft 111 kts 84°
2026-04-20 15:04 49.43487 -2.60473 310 ft 70 kts 89°
2026-04-20 15:04 49.43502 -2.60000 318 ft 20 kts 86°
2026-04-20 15:04 49.43450 -2.59864 324 ft 16 kts 174°
2026-04-20 15:04 49.43367 -2.59856 325 ft 10 kts 176°
2026-04-20 15:05 49.43347 -2.59821 326 ft 2 kts 105°
2026-04-20 15:05 49.43348 -2.59789 328 ft 4 kts 86°
2026-04-20 15:05 49.43356 -2.59730 328 ft 7 kts 77°
2026-04-20 15:05 49.43357 -2.59721 328 ft 0 kts 77°
2026-04-20 15:06 49.43358 -2.59711 329 ft 4 kts 84°
2026-04-20 15:06 49.43313 -2.59686 327 ft 11 kts 178°
2026-04-20 15:07 49.43258 -2.59684 328 ft 2 kts 178°
2026-04-20 15:07 49.43255 -2.59684 328 ft 0 kts 178°